Weather History for KANW - November, 2012

Change the Weather History Date:

Sunday, November 11, 2012

  Actual Average Record
Temperature  
Mean Temperature 20 °F -  
Max Temperature 27 °F 47 °F 80 °F (2005)
Min Temperature 12 °F 25 °F 5 °F (2014)
Degree Days  
Heating Degree Days 46    
Moisture  
Dew Point 9 °F    
Average Humidity 65    
Maximum Humidity 77    
Minimum Humidity 48    
Precipitation  
Precipitation 0.00 in - - ()
Sea Level Pressure  
Sea Level Pressure 29.99 in    
Wind  
Wind Speed 16 mph (WNW)    
Max Wind Speed 24 mph    
Max Gust Speed 32 mph    
Visibility 10 miles    
Events      
Averages and records for this station are not official NWS values.
T = Trace of Precipitation, MM = Missing Value Source: NWS Daily Summary

Daily Weather History Graph

Daily Weather History Graph

Search for Another Location

Airport or City:

Trip Planner

Search our weather history database for the weather conditions in past years. The results will help you decide how hot, cold, wet, or windy it might be!

Date:

Astronomy

Nov. 11, 2012 Rise Set
Actual Time 7:26 AM CST 5:20 PM CST
Civil Twilight 6:56 AM CST 5:50 PM CST
Nautical Twilight 6:22 AM CST 6:24 PM CST
Astronomical Twilight 5:49 AM CST 6:57 PM CST
Moon 4:40 AM CST (11/11) 3:47 PM CST (11/11)
Length of Visible Light 10h 53m
Length of Day
9h 53m
Waning Crescent, 7% of the Moon is Illuminated
Nov 11
Waning Crescent
Nov 13
New
Nov 20
First Quarter
Nov 28
Full
Dec 6
Last Quarter

Hourly Weather History & Observations

Time (CST) Temp. Windchill Dew Point Humidity Pressure Visibility Wind Dir Wind Speed Gust Speed Precip Events Conditions
12:15 AM 19.4 °F 2.1 °F 12.2 °F 74% 29.84 in 10.0 mi NNW 24.2 mph 32.2 mph N/A   Scattered Clouds
12:35 AM 18.7 °F 5.1 °F 11.8 °F 75% 29.85 in 10.0 mi NW 13.8 mph 26.5 mph N/A   Scattered Clouds
12:55 AM 18.9 °F 2.1 °F 12.2 °F 75% 29.87 in 10.0 mi NW 21.9 mph 31.1 mph N/A   Mostly Cloudy
1:15 AM 18.1 °F 2.4 °F 10.6 °F 72% 29.87 in 10.0 mi NW 18.4 mph 26.5 mph N/A   Scattered Clouds
1:35 AM 17.6 °F 0.9 °F 10.0 °F 72% 29.89 in 10.0 mi NNW 20.7 mph 26.5 mph N/A   Clear
1:55 AM 17.4 °F 1.0 °F 9.5 °F 71% 29.88 in 10.0 mi NW 19.6 mph 27.6 mph N/A   Clear
2:15 AM 17.2 °F 1.2 °F 9.3 °F 71% 29.88 in 10.0 mi NW 18.4 mph 27.6 mph N/A   Clear
2:35 AM 16.7 °F 1.5 °F 9.5 °F 73% 29.89 in 10.0 mi NW 16.1 mph - N/A   Clear
2:55 AM 16.5 °F 3.0 °F 10.0 °F 76% 29.90 in 10.0 mi NW 12.7 mph - N/A   Clear
3:15 AM 16.2 °F 3.2 °F 10.2 °F 77% 29.90 in 10.0 mi WNW 11.5 mph 17.3 mph N/A   Clear
3:35 AM 16.5 °F 0.8 °F 10.0 °F 76% 29.91 in 10.0 mi NW 17.3 mph 25.3 mph N/A   Clear
3:55 AM 16.0 °F 0.6 °F 9.0 °F 74% 29.91 in 10.0 mi NW 16.1 mph - N/A   Clear
4:15 AM 15.6 °F -1.3 °F 8.1 °F 72% 29.91 in 10.0 mi NW 19.6 mph 27.6 mph N/A   Clear
4:35 AM 15.4 °F -0.6 °F 7.5 °F 71% 29.92 in 10.0 mi NW 17.3 mph 26.5 mph N/A   Clear
4:55 AM 14.9 °F -1.3 °F 7.3 °F 72% 29.92 in 10.0 mi NW 17.3 mph 23.0 mph N/A   Clear
5:15 AM 14.5 °F -1.8 °F 6.8 °F 71% 29.94 in 10.0 mi NW 17.3 mph - N/A   Clear
5:35 AM 14.0 °F -3.0 °F 6.3 °F 71% 29.94 in 10.0 mi NW 18.4 mph 24.2 mph N/A   Clear
5:55 AM 13.6 °F -3.5 °F 5.7 °F 71% 29.95 in 10.0 mi NW 18.4 mph 24.2 mph N/A   Clear
6:15 AM 13.3 °F -2.4 °F 5.0 °F 70% 29.95 in 10.0 mi NW 15.0 mph 20.7 mph N/A   Clear
6:35 AM 12.9 °F -2.2 °F 4.5 °F 69% 29.95 in 10.0 mi NW 13.8 mph - N/A   Clear
6:55 AM 12.7 °F -3.0 °F 4.3 °F 69% 29.96 in 10.0 mi NW 15.0 mph 19.6 mph N/A   Clear
7:15 AM 12.2 °F -3.1 °F 5.0 °F 73% 29.96 in 10.0 mi NW 13.8 mph - N/A   Clear
7:35 AM 12.7 °F -3.0 °F 4.1 °F 68% 29.97 in 10.0 mi NW 15.0 mph 20.7 mph N/A   Clear
7:55 AM 13.1 °F -1.4 °F 4.5 °F 68% 29.98 in 10.0 mi NW 12.7 mph - N/A   Clear
8:15 AM 13.3 °F 1.1 °F 4.8 °F 69% 29.99 in 10.0 mi NW 9.2 mph - N/A   Clear
8:35 AM 14.0 °F -0.2 °F 5.0 °F 67% 29.99 in 10.0 mi NW 12.7 mph 18.4 mph N/A   Clear
8:55 AM 14.9 °F 0.9 °F 5.0 °F 65% 29.99 in 10.0 mi NW 12.7 mph 19.6 mph N/A   Clear
9:15 AM 15.8 °F 1.4 °F 5.0 °F 62% 29.98 in 10.0 mi NW 13.8 mph 20.7 mph N/A   Clear
9:35 AM 16.9 °F 2.8 °F 5.5 °F 61% 29.98 in 10.0 mi NW 13.8 mph 21.9 mph N/A   Clear
9:55 AM 17.6 °F 2.7 °F 6.1 °F 61% 29.98 in 10.0 mi NW 16.1 mph 20.7 mph N/A   Clear
10:15 AM 17.6 °F 2.7 °F 6.3 °F 61% 29.99 in 10.0 mi NW 16.1 mph 23.0 mph N/A   Clear
10:35 AM 18.3 °F 3.6 °F 7.2 °F 62% 29.99 in 10.0 mi NW 16.1 mph 20.7 mph N/A   Clear
10:55 AM 18.9 °F 4.3 °F 6.4 °F 58% 29.99 in 10.0 mi NW 16.1 mph 21.9 mph N/A   Clear
11:15 AM 19.6 °F 4.7 °F 7.3 °F 59% 29.99 in 10.0 mi NW 17.3 mph - N/A   Clear
11:35 AM 20.5 °F 5.9 °F 7.9 °F 58% 29.99 in 10.0 mi WNW 17.3 mph 24.2 mph N/A   Clear
11:55 AM 21.2 °F 6.8 °F 8.1 °F 57% 29.99 in 10.0 mi WNW 17.3 mph 25.3 mph N/A   Clear
12:15 PM 21.6 °F 7.8 °F 8.4 °F 57% 29.98 in 10.0 mi NW 16.1 mph 23.0 mph N/A   Clear
12:35 PM 22.6 °F 10.7 °F 9.7 °F 58% 29.98 in 10.0 mi NW 12.7 mph - N/A   Clear
12:55 PM 23.7 °F 11.0 °F 10.8 °F 58% 29.98 in 10.0 mi WNW 15.0 mph 19.6 mph N/A   Clear
1:15 PM 25.3 °F 14.1 °F 12.2 °F 58% 29.97 in 10.0 mi WNW 12.7 mph 16.1 mph N/A   Clear
1:35 PM 26.1 °F 16.2 °F 12.6 °F 57% 29.97 in 10.0 mi WNW 10.4 mph 17.3 mph N/A   Clear
1:55 PM 27.0 °F 14.3 °F 12.4 °F 54% 29.97 in 10.0 mi WNW 17.3 mph 23.0 mph N/A   Clear
2:15 PM 27.5 °F 14.2 °F 10.9 °F 50% 29.97 in 10.0 mi WNW 19.6 mph 27.6 mph N/A   Clear
2:35 PM 27.1 °F 13.1 °F 10.4 °F 49% 29.97 in 10.0 mi NW 21.9 mph 28.8 mph N/A   Clear
2:55 PM 27.7 °F 14.8 °F 10.8 °F 49% 29.97 in 10.0 mi WNW 18.4 mph 29.9 mph N/A   Clear
3:15 PM 27.5 °F 15.0 °F 10.0 °F 48% 29.98 in 10.0 mi WNW 17.3 mph 25.3 mph N/A   Clear
3:35 PM 27.5 °F 13.5 °F 9.9 °F 48% 29.99 in 10.0 mi NW 21.9 mph 31.1 mph N/A   Clear
3:55 PM 27.5 °F 15.9 °F 10.9 °F 50% 29.99 in 10.0 mi WNW 15.0 mph 27.6 mph N/A   Clear
4:15 PM 27.1 °F 13.8 °F 10.8 °F 50% 30.00 in 10.0 mi WNW 19.6 mph 26.5 mph N/A   Clear
4:35 PM 26.6 °F 14.3 °F 10.4 °F 51% 30.01 in 10.0 mi WNW 16.1 mph 25.3 mph N/A   Clear
4:55 PM 25.9 °F 15.3 °F 10.9 °F 53% 30.02 in 10.0 mi WNW 11.5 mph 20.7 mph N/A   Clear
5:15 PM 24.8 °F 14.0 °F 11.8 °F 58% 30.02 in 10.0 mi WNW 11.5 mph - N/A   Clear
5:35 PM 23.0 °F 13.9 °F 12.2 °F 63% 30.03 in 10.0 mi WNW 8.1 mph - N/A   Clear
5:55 PM 22.1 °F 12.0 °F 11.7 °F 64% 30.03 in 10.0 mi WNW 9.2 mph - N/A   Clear
6:15 PM 21.9 °F 11.7 °F 11.3 °F 64% 30.04 in 10.0 mi WNW 9.2 mph - N/A   Clear
6:35 PM 22.1 °F 12.0 °F 11.1 °F 63% 30.05 in 10.0 mi WNW 9.2 mph - N/A   Clear
6:55 PM 21.2 °F 9.5 °F 11.1 °F 65% 30.05 in 10.0 mi West 11.5 mph - N/A   Clear
7:15 PM 21.9 °F 9.8 °F 11.1 °F 63% 30.06 in 10.0 mi West 12.7 mph - N/A   Clear
7:35 PM 21.6 °F 8.8 °F 10.9 °F 64% 30.07 in 10.0 mi WNW 13.8 mph - N/A   Clear
7:55 PM 21.4 °F 9.1 °F 10.9 °F 64% 30.07 in 10.0 mi WNW 12.7 mph - N/A   Clear
8:15 PM 20.8 °F 10.4 °F 10.9 °F 66% 30.08 in 10.0 mi WNW 9.2 mph - N/A   Clear
8:35 PM 19.8 °F 9.1 °F 10.8 °F 68% 30.08 in 10.0 mi West 9.2 mph - N/A   Clear
8:55 PM 19.2 °F 9.3 °F 10.8 °F 70% 30.09 in 10.0 mi West 8.1 mph - N/A   Clear
9:15 PM 18.9 °F 9.8 °F 10.4 °F 70% 30.10 in 10.0 mi West 6.9 mph - N/A   Clear
9:35 PM 18.3 °F 8.2 °F 10.4 °F 71% 30.10 in 10.0 mi West 8.1 mph - N/A   Clear
9:55 PM 18.7 °F 8.6 °F 10.2 °F 70% 30.10 in 10.0 mi West 8.1 mph - N/A   Clear
10:15 PM 17.1 °F 8.7 °F 9.7 °F 73% 30.10 in 10.0 mi West 5.8 mph - N/A   Clear
10:35 PM 15.6 °F 4.9 °F 9.0 °F 75% 30.10 in 10.0 mi West 8.1 mph - N/A   Clear
10:55 PM 17.1 °F 5.8 °F 10.0 °F 74% 30.10 in 10.0 mi WSW 9.2 mph - N/A   Scattered Clouds
11:15 PM 16.3 °F 4.1 °F 9.9 °F 76% 30.10 in 10.0 mi WSW 10.4 mph - N/A   Scattered Clouds
11:35 PM 16.3 °F 4.1 °F 10.0 °F 76% 30.11 in 10.0 mi WSW 10.4 mph - N/A   Clear
11:55 PM 16.9 °F 4.1 °F 10.2 °F 75% 30.11 in 10.0 mi WSW 11.5 mph - N/A   Clear